Location: Twentynine Palms Airport
(34.1316°N, 115.9458°W)
Time: 14:27:36
(UTC-07:00)

Amateur Radio Satellites - All Passes

Search period start: 26 April 2017 13:57
Search period end: 27 April 2017 13:57
Location: Twentynine Palms Airport, 34.1316°N, 115.9458°W

Satellite Date Start Highest point End Downlink Frequencies (MHz)
Time Altitude Azimuth
DX 1 26 Apr 14:01:04 14:05:21 58° 285° (WNW) 14:09:36 434.975-435.025
YUBILEINY 26 Apr 14:08:51 14:13:55 16° 67° (ENE) 14:18:58 435.215
50 SAT 26 Apr 14:09:56 14:12:26 19° 289° (WNW) 14:14:56 437.505
ITAMSAT 1 26 Apr 14:11:23 14:14:44 18° 65° (ENE) 14:18:04 435.822/435.867
SPROUT 26 Apr 14:14:22 14:16:49 15° 292° (WNW) 14:19:16 437.525
BEESAT 2 26 Apr 14:22:03 14:25:59 88° 298° (WNW) 14:30:00 435.950
Gurwin Techsat 1B 26 Apr 14:23:08 14:28:15 49° 260° (W) 14:33:24 435.225
Oscar 19 26 Apr 14:24:15 14:28:30 26° 264° (W) 14:32:48 437.125/150
BEESAT 3 26 Apr 14:24:19 14:27:44 28° 305° (NW) 14:31:13 437.485
AO-7 26 Apr 14:54:42 15:02:42 55° 67° (ENE) 15:10:43 .
ITUPSAT 1 26 Apr 14:56:34 15:00:30 25° 97° (E) 15:04:26 437.325
SO-50 26 Apr 14:58:46 15:02:31 25° 53° (NE) 15:06:15 436.795
Tancredo 1 26 Apr 15:01:52 15:04:46 36° 39° (NE) 15:07:39 437.200
UKube-1 26 Apr 15:05:53 15:08:30 16° 293° (WNW) 15:11:07 .
ISS 26 Apr 15:21:26 15:24:35 45° 40° (NE) 15:27:44 437.550
RS-15 26 Apr 15:27:07 15:38:11 37° 46° (NE) 15:48:44 29.354- 29.394
MOZHAYETS 4 26 Apr 15:47:57 15:52:23 45° 99° (E) 15:56:48
ITAMSAT 1 26 Apr 15:48:46 15:53:46 48° 260° (W) 15:58:47 435.822/435.867
BEESAT 26 Apr 15:53:04 15:57:50 74° 284° (WNW) 16:02:35 436.000
YUBILEINY 26 Apr 16:02:57 16:11:45 87° 267° (W) 16:20:34 435.215
ITUPSAT 1 26 Apr 16:34:12 16:38:14 28° 290° (WNW) 16:42:15 437.325
Tancredo 1 26 Apr 16:38:41 16:40:25 14° 232° (SW) 16:42:08 437.200
CUBESAT XI-V 26 Apr 16:38:59 16:42:55 26° 96° (E) 16:46:49 437.345
SO-50 26 Apr 16:39:04 16:42:54 28° 248° (WSW) 16:46:44 436.795
AO-7 26 Apr 16:48:53 16:55:42 28° 263° (W) 17:02:33 .
CUTE-I 26 Apr 16:58:30 17:01:05 14° 64° (ENE) 17:03:40 437.470
JUGNU 26 Apr 16:58:37 17:01:52 15° 168° (SSE) 17:05:08 437.505
ISS 26 Apr 16:59:19 17:00:45 12° 233° (SW) 17:02:11 437.550
DOVE 4 26 Apr 17:13:00 17:17:40 33° 71° (ENE) 17:22:19 437.250
MOZHAYETS 4 26 Apr 17:26:31 17:29:07 15° 293° (WNW) 17:31:43
KKS-1 26 Apr 17:37:36 17:42:00 64° 285° (WNW) 17:46:21 437.445
XW-2D 26 Apr 17:38:48 17:42:04 29° 73° (ENE) 17:45:21 145.860 - 145.880
RS-15 26 Apr 17:39:29 17:51:23 65° 248° (WSW) 18:02:41 29.354- 29.394
XW-2B 26 Apr 17:45:34 17:48:59 35° 74° (ENE) 17:52:24 145.730 - 145.750
KAITUO 1B 26 Apr 17:55:16 17:58:40 36° 74° (ENE) 18:02:04 145.475/437.950
LilacSat-2 26 Apr 17:56:13 17:59:52 53° 76° (ENE) 18:03:34 437.200
XW-2C 26 Apr 17:57:14 18:00:51 52° 76° (ENE) 18:04:30 145.795 - 145.815
HO-68 26 Apr 18:00:37 18:05:21 19° 60° (ENE) 18:10:05 435.675
YUBILEINY 26 Apr 18:03:24 18:07:11 14° 282° (WNW) 18:10:58 435.215
STARS 26 Apr 18:09:30 18:13:49 66° 285° (WNW) 18:18:07 437.465
CUBESAT XI-V 26 Apr 18:16:16 18:20:09 26° 290° (WNW) 18:24:01 437.345
XW-2F 26 Apr 18:22:41 18:26:23 69° 260° (W) 18:30:06 145.980 - 146.000
NUDT-PHONESAT 26 Apr 18:34:19 18:37:55 58° 260° (W) 18:41:33 437.300
CUTE-I 26 Apr 18:35:12 18:40:30 66° 258° (WSW) 18:45:50 437.470
NO-84 26 Apr 18:36:32 18:40:07 35° 128° (SE) 18:43:25 435.350 FM
CUTE 1.7 + AOD 2 26 Apr 18:39:31 18:42:33 20° 70° (ENE) 18:45:37 437.475
XW-2A 26 Apr 18:45:14 18:47:42 19° 72° (ENE) 18:50:11 145.665 - 145.685
JUGNU 26 Apr 18:46:00 18:50:11 20° 178° (S) 18:54:23 437.505
DOVE 4 26 Apr 18:50:53 18:55:15 26° 265° (W) 18:59:39 437.250
STRAND 1 26 Apr 18:52:28 18:54:26 12° 92° (E) 18:56:23 437.568
SEEDS 26 Apr 18:59:22 19:02:31 21° 70° (ENE) 19:05:42 437.485
XW-2D 26 Apr 19:14:25 19:16:17 13° 266° (W) 19:18:11 145.860 - 145.880
M-CUBED/EXP-1 PRIME 26 Apr 19:15:36 19:17:05 12° 96° (E) 19:18:32 437.505
XW-2B 26 Apr 19:22:05 19:23:16 11° 267° (W) 19:24:29 145.730 - 145.750
O/OREOS (USA 219) 26 Apr 19:28:46 19:31:44 17° 60° (ENE) 19:34:41 437.305
UWE-3 26 Apr 19:31:52 19:35:06 21° 71° (ENE) 19:38:17 435.000/436.395/437.385
KAITUO 1B 26 Apr 19:32:09 19:32:48 10° 267° (W) 19:33:26 145.475/437.950
CUBEBUG 2 26 Apr 19:44:00 19:48:16 52° 75° (ENE) 19:52:27 437.445
HO-68 26 Apr 19:45:12 19:52:19 72° 257° (WSW) 19:59:29 435.675
AAUSAT CUBESAT 2 26 Apr 20:06:03 20:10:07 63° 76° (ENE) 20:14:14 437.432
SRMSAT 26 Apr 20:08:58 20:12:48 17° 171° (S) 20:16:37 437.500
CUTE 1.7 + AOD 2 26 Apr 20:14:36 20:18:10 27° 264° (W) 20:21:47 437.475
NO-84 26 Apr 20:14:54 20:17:41 20° 320° (NW) 20:20:19 435.350 FM
XW-2A 26 Apr 20:18:13 20:20:21 16° 265° (W) 20:22:30 145.665 - 145.685
ZACube-1 26 Apr 20:26:11 20:30:16 51° 75° (ENE) 20:34:19 437.345
STRAND 1 26 Apr 20:28:54 20:33:56 62° 286° (WNW) 20:38:58 437.568
AO-73 26 Apr 20:32:58 20:37:05 56° 75° (ENE) 20:41:08 145.935
SEEDS 26 Apr 20:34:36 20:38:02 25° 264° (W) 20:41:30 437.485
JUGNU 26 Apr 20:34:48 20:38:32 17° 189° (S) 20:42:16 437.505
AO-85 26 Apr 20:39:46 20:41:33 13° 50° (NE) 20:43:21 145.980
M-CUBED/EXP-1 PRIME 26 Apr 20:47:56 20:51:47 40° 292° (WNW) 20:55:20 437.505
Oscar 11 26 Apr 20:48:11 20:52:27 72° 77° (ENE) 20:56:45 .
DELFI C3 26 Apr 20:50:41 20:53:25 18° 70° (ENE) 20:56:11 145.870
O/OREOS (USA 219) 26 Apr 21:07:01 21:11:17 39° 256° (WSW) 21:15:29 437.305
UWE-3 26 Apr 21:07:49 21:11:23 25° 263° (W) 21:14:55 435.000/436.395/437.385
CUBEBUG 2 26 Apr 21:24:15 21:25:05 10° 267° (W) 21:25:56 437.445
OBJECT BX 26 Apr 21:29:08 21:32:30 38° 75° (ENE) 21:35:55 145.990 - 145.960
SRMSAT 26 Apr 21:57:02 22:01:18 20° 182° (S) 22:05:33 437.500
PRISM 26 Apr 22:00:29 22:04:19 36° 99° (E) 22:08:07 437.425
TIGRISAT 26 Apr 22:14:56 22:18:44 30° 98° (E) 22:22:35 435.000
ESTCUBE 1 26 Apr 22:15:51 22:17:31 12° 65° (ENE) 22:19:10 437.505/2401.250
AO-85 26 Apr 22:18:14 22:22:09 51° 244° (WSW) 22:26:17 145.980
DELFI C3 26 Apr 22:24:38 22:27:59 26° 263° (W) 22:31:22 145.870
LO-87 26 Apr 22:32:35 22:35:46 29° 73° (ENE) 22:38:58 145.935 - 145.965
UNISAT 6 26 Apr 22:35:52 22:40:07 61° 101° (E) 22:44:26 437.425
BEESAT 3 26 Apr 22:43:53 22:47:47 45° 58° (ENE) 22:51:35 437.485
BEESAT 2 26 Apr 22:43:58 22:46:46 18° 52° (NE) 22:49:32 435.950
FO-29 26 Apr 22:48:27 22:53:38 57° 102° (ESE) 22:59:13 435.910
SPROUT 26 Apr 23:27:47 23:30:41 18° 69° (ENE) 23:33:36 437.525
PRISM 26 Apr 23:36:56 23:39:15 15° 293° (WNW) 23:41:32 437.425
EO-79 26 Apr 23:42:51 23:46:01 21° 96° (E) 23:49:11 145.935-145.965
DUCHIFAT 1 26 Apr 23:44:54 23:47:41 17° 95° (E) 23:50:29 145.980
SRMSAT 26 Apr 23:46:30 23:49:47 15° 192° (SSW) 23:53:04 437.500
ESTCUBE 1 26 Apr 23:49:23 23:53:46 55° 260° (W) 23:58:13 437.505/2401.250
TIGRISAT 26 Apr 23:52:13 23:55:11 19° 291° (WNW) 23:58:11 435.000
VELOX 1 27 Apr 00:01:28 00:05:46 50° 74° (ENE) 00:10:06 145.980
LO-87 27 Apr 00:07:33 00:09:14 13° 266° (W) 00:10:56 145.935 - 145.965
UKube-1 27 Apr 00:20:13 00:23:21 20° 69° (ENE) 00:26:30 .
BEESAT 2 27 Apr 00:20:55 00:24:36 34° 247° (WSW) 00:28:15 435.950
AIST 2D 27 Apr 00:20:59 00:24:24 48° 284° (WNW) 00:27:48 435.315
POLYITAN 1 27 Apr 00:21:21 00:25:31 64° 101° (E) 00:29:41 437.675
BEESAT 3 27 Apr 00:23:35 00:24:53 11° 252° (WSW) 00:26:11 437.485
QB50P2 27 Apr 00:27:57 00:32:10 86° 102° (ESE) 00:36:22 145.880/145.840
FO-29 27 Apr 00:35:31 00:38:19 15° 294° (WNW) 00:41:12 435.910
50 SAT 27 Apr 00:37:47 00:41:15 80° 77° (ENE) 00:44:45 437.505
BUGSAT 1 27 Apr 00:45:06 00:48:29 26° 97° (E) 00:51:52 437.445
NANOSAT C BR1 27 Apr 00:49:40 00:53:48 61° 284° (WNW) 00:57:55 145.865
DX 1 27 Apr 00:52:19 00:56:41 72° 75° (ENE) 01:01:04 434.975-435.025
Oscar 19 27 Apr 01:01:19 01:04:03 14° 93° (E) 01:06:46 437.125/150
SPROUT 27 Apr 01:02:33 01:06:20 31° 263° (W) 01:10:08 437.525
EO-79 27 Apr 01:18:15 01:21:42 25° 289° (WNW) 01:25:09 145.935-145.965
DUCHIFAT 1 27 Apr 01:19:43 01:23:21 29° 288° (WNW) 01:26:58 145.980
PCSat 27 Apr 01:24:16 01:29:00 32° 108° (ESE) 01:33:45 145.827
VELOX 1 27 Apr 01:40:53 01:42:27 12° 268° (W) 01:44:01 145.980
UKube-1 27 Apr 01:55:24 01:59:09 29° 262° (W) 02:02:56 .
ITUPSAT 1 27 Apr 02:00:12 02:03:37 20° 68° (ENE) 02:07:03 437.325
BUGSAT 1 27 Apr 02:20:52 02:23:38 18° 291° (WNW) 02:26:25 437.445
Oscar 19 27 Apr 02:38:34 02:43:39 55° 286° (WNW) 02:48:42 437.125/150
Gurwin Techsat 1B 27 Apr 02:42:53 02:48:14 90° 201° (SSW) 02:53:32 435.225
MOZHAYETS 4 27 Apr 02:46:25 02:50:15 28° 71° (ENE) 02:54:06
NO-84 27 Apr 02:51:09 02:53:49 34° 44° (NE) 02:56:26 435.350 FM
BEESAT 27 Apr 02:55:25 03:00:10 83° 75° (ENE) 03:04:56 436.000
AO-7 27 Apr 03:01:47 03:07:46 21° 95° (E) 03:13:43 .
YUBILEINY 27 Apr 03:05:35 03:11:35 21° 82° (E) 03:17:34 435.215
PCSat 27 Apr 03:07:37 03:12:19 30° 304° (NW) 03:17:03 145.827
ITUPSAT 1 27 Apr 03:36:51 03:41:10 35° 262° (W) 03:45:31 437.325
CUBESAT XI-V 27 Apr 03:39:24 03:42:23 17° 67° (ENE) 03:45:23 437.345
ITAMSAT 1 27 Apr 04:05:05 04:10:17 81° 104° (ESE) 04:15:27 435.822/435.867
MOZHAYETS 4 27 Apr 04:23:47 04:27:20 22° 265° (W) 04:30:54
KKS-1 27 Apr 04:31:26 04:35:53 72° 75° (ENE) 04:40:21 437.445
AO-7 27 Apr 04:52:46 05:01:01 70° 290° (WNW) 05:09:16 .
YUBILEINY 27 Apr 04:58:52 05:07:28 68° 278° (W) 05:16:09 435.215
STARS 27 Apr 05:01:53 05:06:15 66° 76° (ENE) 05:10:38 437.465
SO-50 27 Apr 05:10:04 05:13:18 19° 110° (ESE) 05:16:32 436.795
CUBESAT XI-V 27 Apr 05:15:04 05:19:23 39° 262° (W) 05:23:47 437.345
RS-15 27 Apr 05:46:36 05:56:15 30° 103° (ESE) 06:06:06 29.354- 29.394
ITAMSAT 1 27 Apr 05:48:02 05:49:00 10° 298° (WNW) 05:49:59 435.822/435.867
M-CUBED/EXP-1 PRIME 27 Apr 05:57:37 05:59:22 12° 60° (ENE) 06:01:07 437.505
XW-2F 27 Apr 05:59:34 06:01:51 15° 94° (E) 06:04:08 145.980 - 146.000
STRAND 1 27 Apr 06:05:06 06:07:22 13° 64° (ENE) 06:09:38 437.568
NUDT-PHONESAT 27 Apr 06:09:20 06:11:41 16° 95° (E) 06:14:03 437.300
XW-2D 27 Apr 06:48:17 06:52:06 79° 101° (ESE) 06:55:56 145.860 - 145.880
AO-7 27 Apr 06:49:01 06:52:17 13° 308° (NW) 06:55:33 .
SO-50 27 Apr 06:49:10 06:53:28 38° 304° (NW) 06:57:45 436.795
DOVE 4 27 Apr 06:53:15 06:57:45 61° 284° (WNW) 07:01:58 437.250
XW-2B 27 Apr 06:55:14 06:59:04 87° 282° (WNW) 07:02:53 145.730 - 145.750
CUTE-I 27 Apr 06:55:59 07:01:17 68° 102° (ESE) 07:06:33 437.470
KAITUO 1B 27 Apr 07:03:27 07:07:14 86° 283° (WNW) 07:11:01 145.475/437.950
LilacSat-2 27 Apr 07:06:58 07:10:44 55° 284° (WNW) 07:14:30 437.200
XW-2C 27 Apr 07:07:14 07:11:00 57° 283° (WNW) 07:14:45 145.795 - 145.815
HO-68 27 Apr 07:17:44 07:23:42 28° 96° (E) 07:29:38 435.675
M-CUBED/EXP-1 PRIME 27 Apr 07:28:36 07:33:09 68° 255° (WSW) 07:37:49 437.505
XW-2F 27 Apr 07:32:43 07:35:58 27° 287° (WNW) 07:39:14 145.980 - 146.000
Tancredo 1 27 Apr 07:32:49 07:35:54 84° 139° (SE) 07:39:00 437.200
CUBEBUG 2 27 Apr 07:39:48 07:41:56 14° 94° (E) 07:44:04 437.445
STRAND 1 27 Apr 07:40:53 07:45:57 64° 258° (WSW) 07:51:01 437.568
XW-2A 27 Apr 07:42:23 07:45:28 33° 98° (E) 07:48:32 145.665 - 145.685
NUDT-PHONESAT 27 Apr 07:42:28 07:45:33 25° 287° (WNW) 07:48:38 437.300
AAUSAT CUBESAT 2 27 Apr 07:53:31 07:55:30 13° 93° (E) 07:57:29 437.432
RS-15 27 Apr 07:55:42 08:07:38 70° 302° (WNW) 08:20:02 29.354- 29.394
ISS 27 Apr 07:58:35 08:01:49 66° 318° (NW) 08:05:05 437.550
CUTE 1.7 + AOD 2 27 Apr 08:02:14 08:06:30 65° 101° (E) 08:10:45 437.475
ZACube-1 27 Apr 08:19:28 08:21:30 13° 93° (E) 08:23:33 437.345
SEEDS 27 Apr 08:21:01 08:25:17 69° 101° (ESE) 08:29:30 437.485
AO-73 27 Apr 08:25:43 08:28:00 14° 94° (E) 08:30:18 145.935
CUTE-I 27 Apr 08:38:20 08:40:41 13° 297° (WNW) 08:43:03 437.470
Oscar 11 27 Apr 08:40:04 08:42:59 18° 94° (E) 08:45:55 .
PRISM 27 Apr 08:46:58 08:49:37 17° 68° (ENE) 08:52:17 437.425
FO-29 27 Apr 08:58:57 09:02:45 17° 66° (ENE) 09:06:18 435.910
UWE-3 27 Apr 08:59:49 09:04:02 79° 101° (E) 09:08:21 435.000/436.395/437.385
HO-68 27 Apr 09:04:43 09:11:33 48° 291° (WNW) 09:18:22 435.675
TIGRISAT 27 Apr 09:10:49 09:13:45 18° 69° (ENE) 09:16:39 435.000
Tancredo 1 27 Apr 09:11:13 09:12:11 11° 332° (NNW) 09:13:09 437.200
CUBEBUG 2 27 Apr 09:14:47 09:18:38 38° 286° (WNW) 09:22:34 437.445
AAUSAT CUBESAT 2 27 Apr 09:27:10 09:31:05 39° 286° (WNW) 09:34:58 437.432
UNISAT 6 27 Apr 09:31:07 09:35:03 33° 73° (ENE) 09:38:57 437.425
O/OREOS (USA 219) 27 Apr 09:36:12 09:40:23 36° 104° (ESE) 09:44:35 437.305
ZACube-1 27 Apr 09:53:55 09:57:54 41° 286° (WNW) 10:01:57 437.345
AO-73 27 Apr 10:00:24 10:04:19 38° 286° (WNW) 10:08:20 145.935
DELFI C3 27 Apr 10:04:38 10:08:30 47° 99° (E) 10:12:20 145.870
RS-15 27 Apr 10:14:08 10:22:56 22° 328° (NNW) 10:31:53 29.354- 29.394
Oscar 11 27 Apr 10:15:16 10:19:09 32° 288° (WNW) 10:23:00 .
PCSat 27 Apr 10:17:02 10:19:40 13° 49° (NE) 10:22:17 145.827
PRISM 27 Apr 10:20:53 10:24:36 32° 262° (W) 10:28:22 437.425
EO-79 27 Apr 10:34:30 10:34:49 10° 66° (ENE) 10:35:08 145.935-145.965
OBJECT BX 27 Apr 10:34:43 10:38:23 88° 286° (WNW) 10:42:02 145.990 - 145.960
FO-29 27 Apr 10:40:59 10:47:27 62° 258° (WSW) 10:53:10 435.910
TIGRISAT 27 Apr 10:46:13 10:50:10 32° 262° (W) 10:54:05 435.000
AIST 2D 27 Apr 10:51:48 10:54:47 28° 74° (ENE) 10:57:48 435.315
UNISAT 6 27 Apr 11:08:55 11:11:47 17° 265° (W) 11:14:38 437.425
POLYITAN 1 27 Apr 11:10:23 11:14:00 28° 72° (ENE) 11:17:37 437.675
O/OREOS (USA 219) 27 Apr 11:16:41 11:19:52 18° 299° (WNW) 11:23:05 437.305
QB50P2 27 Apr 11:16:43 11:20:36 37° 73° (ENE) 11:24:30 145.880/145.840
BUGSAT 1 27 Apr 11:32:48 11:34:28 12° 67° (ENE) 11:36:08 437.445
LO-87 27 Apr 11:36:01 11:39:33 63° 101° (E) 11:43:02 145.935 - 145.965
NANOSAT C BR1 27 Apr 11:37:34 11:41:42 56° 75° (ENE) 11:45:48 145.865
DELFI C3 27 Apr 11:41:56 11:42:48 11° 293° (WNW) 11:43:39 145.870
ESTCUBE 1 27 Apr 11:45:30 11:49:47 40° 99° (E) 11:54:02 437.505/2401.250
VELOX 1 27 Apr 11:57:05 11:59:00 13° 93° (E) 12:00:55 145.980
PCSat 27 Apr 11:58:15 12:03:41 81° 246° (WSW) 12:09:06 145.827
EO-79 27 Apr 12:05:54 12:10:03 56° 260° (W) 12:14:12 145.935-145.965
DUCHIFAT 1 27 Apr 12:06:51 12:11:02 69° 259° (W) 12:15:12 145.980
Oscar 19 27 Apr 12:14:51 12:17:46 15° 65° (ENE) 12:20:41 437.125/150
Gurwin Techsat 1B 27 Apr 12:25:07 12:26:15 11° 62° (ENE) 12:27:24 435.225
AIST 2D 27 Apr 12:26:42 12:28:02 12° 267° (W) 12:29:23 435.315
AO-85 27 Apr 12:28:52 12:33:13 65° 300° (WNW) 12:37:17 145.980
BEESAT 3 27 Apr 12:31:01 12:33:45 18° 110° (ESE) 12:36:32 437.485
RS-15 27 Apr 12:37:54 12:42:44 13° 5° (N) 12:47:33 29.354- 29.394
DX 1 27 Apr 12:45:24 12:48:10 16° 95° (E) 12:50:54 434.975-435.025
POLYITAN 1 27 Apr 12:46:48 12:49:45 18° 265° (W) 12:52:43 437.675
SPROUT 27 Apr 12:51:17 12:55:28 55° 101° (E) 12:59:35 437.525
QB50P2 27 Apr 12:54:14 12:56:29 14° 266° (W) 12:58:46 145.880/145.840
BUGSAT 1 27 Apr 13:05:25 13:09:24 44° 260° (W) 13:13:21 437.445
ESTCUBE 1 27 Apr 13:23:25 13:26:12 16° 293° (WNW) 13:29:00 437.505/2401.250
VELOX 1 27 Apr 13:31:25 13:35:39 45° 287° (WNW) 13:39:50 145.980
50 SAT 27 Apr 13:37:39 13:41:03 52° 284° (WNW) 13:44:24 437.505
UKube-1 27 Apr 13:45:20 13:49:36 59° 101° (E) 13:53:50 .
